Regional Weather Roundup
Issued by NWS

Home | Current Version | Previous Version | Text Only | Print | Product List | Glossary Off
Versions: 1 2 3 4 5 6 7 8 9 10 11 12 13 14 15 16 17 18 19 20 21 22 23 24 25 26 27 28

000
ASUS45 KSLC 241710
RWRUT

UTAH REGIONAL WEATHER ROUNDUP
NATIONAL WEATHER SERVICE SALT LAKE CITY UT
1100 AM MDT SUN SEP 24 2017

UTZ001>011-023>025-241800-

NORTHERN UTAH

CITY           SKY/WX    TMP DP  RH WIND       PRES   REMARKS
BRIGHAM CITY   CLOUDY    46  37  70 S8        29.95R
HILL AFB       PTSUNNY   45  37  74 CALM      29.93R
LOGAN          LGT RAIN  42  37  82 N16       29.97R
OGDEN          CLOUDY    47  38  71 N9        29.93R
SALT LAKE CITY LGT RAIN  46  42  86 NW15      29.94R
TOOELE VALLEY  LGT RAIN  43  41  93 NW10      29.98R
WENDOVER       PTSUNNY   50  31  48 NW18G25   30.01
HEBER CITY     LGT SNOW  32  32 100 CALM      29.92R VSB 1
WEST JORDAN    CLOUDY    43  43 100 NW9       29.96R

$$

UTZ011>015-024>027-241800-

CENTRAL/NORTHEAST UTAH

CITY           SKY/WX    TMP DP  RH WIND       PRES   REMARKS
PROVO AIRPORT  LGT RAIN  40  38  93 S6        29.98R
MOAB/CANYONLAN MOSUNNY   58  30  34 SW15      29.90S
DELTA          CLOUDY    36  34  93 S15       30.03R WCI  26
PRICE          CLOUDY    43  36  76 NW7       29.93R
RICHFIELD      CLOUDY    45  37  76 S16       30.03R
ROOSEVELT      SUNNY     46  36  66 CALM      29.94F
VERNAL         MOSUNNY   46  41  82 SE5       29.93F

$$

UTZ013>016-019>022-027-241800-

SOUTHERN UTAH

CITY           SKY/WX    TMP DP  RH WIND       PRES   REMARKS
BRYCE CANYON   SUNNY     40  27  59 NW21G26   30.03R WCI  30
CEDAR CITY     MOSUNNY   43  40  89 N6        30.04R
MILFORD        MOSUNNY   44  38  79 VRB3      30.04R
ST GEORGE      CLOUDY    55  36  48 CALM      30.02S
HANKSVILLE     SUNNY     55  28  35 S6        29.95S
KANAB          SUNNY     48  32  53 CALM      30.06S
BLANDING         N/A     51  21  30 S15       30.06R

$$

REGIONAL REPORTS     COLORADO/ARIZONA

CITY           SKY/WX    TMP DP  RH WIND       PRES   REMARKS
CRAIG, CO      CLOUDY    47  40  76 N3        29.93S
GRAND JUNCTION SUNNY     54  44  69 NW14      29.92R
RIFLE, CO      PTSUNNY   50  43  77 NW3       29.91F
MONTROSE, CO   SUNNY     55  35  47 NW8       29.93S
CORTEZ, CO     SUNNY     56  33  42 SW14G20   29.98S
PAGE, AZ       SUNNY     56  29  35 VRB3      29.97S
GRAND CANYON   SUNNY     48  25  40 MISG      30.04S
KINGMAN, AZ    SUNNY     59  31  34 MISG      30.01S
FLAGSTAFF, AZ  SUNNY     52   9  17 SW10      30.03R

$$

REGIONAL REPORTS    NEVADA/IDAHO/WYOMING

CITY           SKY/WX    TMP DP  RH WIND       PRES   REMARKS
LAS VEGAS, NV  SUNNY     66  30  26 N13       30.00R
ELY, NY        MOSUNNY   43  29  57 VRB3      30.06R
ELKO, NV       SUNNY     47  30  51 VRB6      30.07S
POCATELLO, ID  MOSUNNY   47  32  56 NW3       30.03R
BURLEY, ID     SUNNY     47  34  60 W14G20    30.04R
FORT BRIDGER,  SNOW      33  33 100 NE10      29.94S VSB 1/4 WCI  25
EVANSTON, WY   SNOW      33  33 100 N10       29.93R VSB 1/4 WCI  25
ROCK SPRINGS,  CLOUDY    37  32  82 E20G32    29.96R WCI  27

$$




USA.gov is the U.S. government's official web portal to all federal, state and local government web resources and services.